This demonstration page uses our WeatherBlox Daily Observations layout. Learn more.

Left ArrowRight Arrow

Hourly Observations for April 17, 2020

Temp ( °F °C ) Dew Point ( °F °C ) Humidity (%) Winds ( mph kmh ) Pressure ( in mb ) Visibility ( mi km ) Precip ( " mm )
12:15 am 00:15 Cloudy 30 -1 28 -2 93 93 N 9 15 30.33 1027 10 16 N/A
12:35 am 00:35 Cloudy 31 -0.8 29 -1.8 93 93 N 9 15 30.32 1027 10 16 N/A
12:55 am 00:55 Cloudy 31 -0.8 29 -1.8 93 93 N 8 13 30.32 1027 10 16 N/A
1:15 am 01:15 Cloudy 31 -0.7 29 -1.6 94 94 N 7 11 30.32 1027 10 16 N/A
1:35 am 01:35 Cloudy 31 -0.7 29 -1.6 94 94 N 6 9 30.32 1027 10 16 N/A
1:55 am 01:55 Cloudy 31 -0.7 29 -1.7 93 93 N 6 9 30.32 1027 10 16 N/A
2:15 am 02:15 Cloudy 30 -0.9 29 -1.9 93 93 N 6 9 30.31 1027 10 16 N/A
2:35 am 02:35 Partly Cloudy 29 -1.6 28 -2.4 94 94 NNW 5 7 30.31 1026 10 16 N/A
2:55 am 02:55 Partly Cloudy 28 -2.3 27 -3 95 95 NW 7 11 30.30 1026 10 16 N/A
3:15 am 03:15 Cloudy 27 -2.9 25 -3.7 94 94 NW 6 9 30.32 1027 10 16 N/A
3:35 am 03:35 Partly Cloudy 24 -4.2 23 -5 94 94 NW 6 9 30.33 1027 10 16 N/A
3:55 am 03:55 Partly Cloudy 24 -4.6 23 -5.2 96 96 WNW 6 9 30.34 1027 10 16 N/A
4:15 am 04:15 Clear 23 -4.8 22 -5.4 96 96 WNW 3 6 30.34 1028 7 11 N/A
4:35 am 04:35 Clear 22 -5.4 21 -6 96 96 NW 5 7 30.35 1028 10 16 N/A
4:55 am 04:55 Clear 22 -5.3 21 -5.9 96 96 WNW 5 7 30.35 1028 10 16 N/A
5:15 am 05:15 Clear 22 -5.8 20 -6.5 95 95 NNW 6 9 30.35 1028 10 16 N/A
5:35 am 05:35 Clear 21 -6.3 20 -6.9 96 96 NW 6 9 30.35 1028 7 11 N/A
5:55 am 05:55 Clear 20 -6.4 19 -7 96 96 WNW 5 7 30.36 1028 7 11 N/A
6:15 am 06:15 Clear 19 -7.1 18 -7.8 95 95 WNW 6 9 30.37 1028 7 11 N/A
6:35 am 06:35 Clear 21 -6.1 20 -6.8 95 95 WNW 6 9 30.36 1028 10 16 N/A
6:55 am 06:55 Sunny 20 -6.7 19 -7.5 94 94 WNW 7 11 30.36 1028 10 16 N/A
7:15 am 07:15 Sunny 20 -6.6 19 -7.3 95 95 NW 6 9 30.36 1028 10 16 N/A
7:35 am 07:35 Sunny 21 -6.2 19 -7 94 94 WNW 6 9 30.36 1028 10 16 N/A
7:55 am 07:55 Sunny 22 -5.6 20 -6.4 94 94 WNW 6 9 30.35 1028 10 16 N/A
8:15 am 08:15 Sunny 24 -4.5 23 -5.1 96 96 NW 8 13 30.35 1028 10 16 N/A
8:35 am 08:35 Sunny 26 -3.6 23 -4.9 91 91 NW 10 17 30.33 1027 10 16 N/A
8:55 am 08:55 Sunny 27 -2.8 24 -4.5 88 88 NW 9 15 30.32 1027 10 16 N/A
9:15 am 09:15 Sunny 28 -2.1 25 -3.9 88 88 NW 8 13 30.32 1027 10 16 N/A
9:35 am 09:35 Sunny 29 -1.5 26 -3.6 86 86 NW 7 11 30.31 1026 10 16 N/A
9:55 am 09:55 Sunny 30 -1.3 25 -3.7 84 84 W 8 13 30.31 1026 10 16 N/A
10:15 am 10:15 Sunny 31 -0.5 26 -3.2 82 82 W 8 13 30.30 1026 10 16 N/A
10:35 am 10:35 Sunny 32 0.1 27 -2.6 82 82 WNW 8 13 30.29 1026 10 16 N/A
10:55 am 10:55 Sunny 34 1.1 28 -2.2 79 79 WNW 8 13 30.28 1026 10 16 N/A
11:15 am 11:15 Sunny 35 1.8 29 -1.8 77 77 W 10 17 30.28 1025 10 16 N/A
11:35 am 11:35 Sunny 35 1.9 31 -0.3 86 86 W 9 15 30.28 1025 10 16 N/A
11:55 am 11:55 Sunny 38 3.5 33 0.4 80 80 W 9 15 30.26 1025 10 16 N/A
12:15 pm 12:15 Sunny 39 4.1 33 0.3 77 77 W 9 15 30.25 1024 10 16 N/A
12:35 pm 12:35 Sunny 41 5.2 33 0.6 72 72 WNW 10 17 30.24 1024 10 16 N/A
12:55 pm 12:55 Sunny 42 5.6 31 -0.4 66 66 WNW 9 15 30.22 1023 10 16 N/A
1:15 pm 13:15 Sunny 44 6.4 29 -1.7 57 57 W 8 13 30.20 1023 10 16 N/A
1:35 pm 13:35 Sunny 44 6.8 27 -2.8 51 51 W 13 20 30.19 1022 10 16 N/A
1:55 pm 13:55 Sunny 45 7.2 27 -2.9 49 49 W 13 20 30.17 1022 10 16 N/A
2:15 pm 14:15 Sunny 47 8.2 26 -3.4 44 44 WSW 9 15 30.15 1021 10 16 N/A
2:35 pm 14:35 Partly Cloudy 47 8.5 27 -2.7 46 46 W 15 24 30.15 1021 10 16 N/A
2:55 pm 14:55 Mostly Cloudy 47 8.4 27 -2.7 46 46 W 13 20 30.13 1020 10 16 N/A
3:15 pm 15:15 Partly Cloudy 50 9.8 28 -2.3 43 43 WSW 9 15 30.10 1019 10 16 N/A
3:35 pm 15:35 Mostly Cloudy 49 9.5 24 -4.2 38 38 WSW 10 17 30.10 1019 10 16 N/A
3:55 pm 15:55 Mostly Cloudy 51 10.5 26 -3.6 37 37 WSW 9 15 30.08 1019 10 16 N/A
4:15 pm 16:15 Partly Cloudy 51 10.5 24 -4.5 35 35 W 13 20 30.07 1018 10 16 N/A
4:35 pm 16:35 Partly Cloudy 50 10.1 24 -4.3 36 36 W 13 20 30.06 1018 10 16 N/A
4:55 pm 16:55 Sunny 52 11.3 24 -4.5 33 33 W 16 26 30.04 1017 10 16 N/A
5:15 pm 17:15 Partly Cloudy 53 11.7 24 -4.6 32 32 WSW 12 19 30.04 1017 10 16 N/A
5:35 pm 17:35 Partly Cloudy 53 11.5 24 -4.7 32 32 WSW 13 20 30.03 1017 10 16 N/A
5:55 pm 17:55 Sunny 53 11.7 22 -5.7 29 29 W 13 20 30.02 1017 10 16 N/A
6:15 pm 18:15 Sunny 53 11.8 20 -6.5 27 27 WSW 10 17 30.01 1016 10 16 N/A
6:35 pm 18:35 Sunny 53 11.6 22 -5.6 30 30 WSW 12 19 30.01 1016 10 16 N/A
6:55 pm 18:55 Sunny 53 11.8 21 -6 29 29 W 16 26 30.01 1016 10 16 N/A
7:15 pm 19:15 Partly Cloudy 52 11.2 20 -6.4 29 29 W 10 17 30.00 1016 10 16 N/A
7:35 pm 19:35 Sunny 51 10.7 21 -6 31 31 WSW 12 19 30.01 1016 10 16 N/A
7:55 pm 19:55 Sunny 49 9.7 22 -5.3 35 35 W 7 11 30.01 1016 10 16 N/A
8:15 pm 20:15 Sunny 47 8.6 22 -5.7 36 36 WSW 8 13 30.02 1016 10 16 N/A
8:35 pm 20:35 Clear 44 6.6 22 -5.7 41 41 W 7 11 30.03 1017 10 16 N/A
8:55 pm 20:55 Clear 43 6.2 22 -5.8 42 42 WSW 5 7 30.04 1017 10 16 N/A
9:15 pm 21:15 Clear 43 6.1 23 -5.2 45 45 WSW 3 6 30.05 1018 10 16 N/A
9:35 pm 21:35 Clear 42 5.6 23 -5 47 47 SSW 6 9 30.05 1018 10 16 N/A
9:55 pm 21:55 Clear 40 4.7 23 -5.1 49 49 SW 3 6 30.06 1018 10 16 N/A
10:15 pm 22:15 Clear 41 5 22 -5.6 47 47 SW 3 6 30.06 1018 10 16 N/A
10:35 pm 22:35 Clear 39 3.7 23 -5.2 53 53 SW 5 7 30.08 1019 10 16 N/A
10:55 pm 22:55 Clear 38 3.3 22 -5.6 52 52 SW 6 9 30.07 1018 10 16 N/A
11:15 pm 23:15 Clear 38 3.4 22 -5.7 52 52 SW 5 7 30.07 1018 10 16 N/A
11:35 pm 23:35 Clear 39 4 21 -6.1 48 48 SSW 7 11 30.06 1018 10 16 N/A
11:55 pm 23:55 Clear 37 2.5 21 -5.9 54 54 SSW 5 7 30.06 1018 10 16 N/A

Powered by AerisWeather